• In Hungary
  • List of Countries
  • For 7 days
  • Water Temperature
  • Satellite Maps
  • Weather Map
  • News
  • Weather Widgets
  • user-avatar
    Login

    Hourly Weather Malaya Viska

    Today, 21 September, Friday

    Time Temperature Precipitation Wind Pressure Humidity
    00:00 +20°C° 0 mm 1 mps 746 mmHg 56%
    01:00 +20°C° 0 mm 1 mps 747 mmHg 58%
    02:00 +19°C° 0 mm 1 mps 747 mmHg 60%
    03:00 +19°C° 0 mm 1 mps 747 mmHg 62%
    04:00 +19°C° 0 mm 1 mps 747 mmHg 64%
    05:00 +18°C° 0 mm 1 mps 747 mmHg 65%
    06:00 +20°C° 0 mm 1 mps 747 mmHg 62%
    07:00 +21°C° 0 mm 1 mps 747 mmHg 59%
    08:00 +23°C° 0 mm 1 mps 747 mmHg 55%
    09:00 +25°C° 0 mm 1 mps 747 mmHg 51%
    10:00 +26°C° 0 mm 1 mps 747 mmHg 46%
    11:00 +28°C° 0 mm 1 mps 747 mmHg 42%
    12:00 +28°C° 0 mm 1 mps 747 mmHg 39%
    13:00 +29°C° 0 mm 1 mps 747 mmHg 37%
    14:00 +29°C° 0 mm 1 mps 747 mmHg 33%
    15:00 +29°C° 0 mm 1 mps 746 mmHg 35%
    16:00 +28°C° 0 mm 1 mps 746 mmHg 37%
    17:00 +28°C° 0 mm 1 mps 746 mmHg 39%
    18:00 +26°C° 0 mm 1 mps 746 mmHg 43%
    19:00 +25°C° 0 mm 2 mps 746 mmHg 46%
    20:00 +23°C° 0 mm 2 mps 745 mmHg 49%
    21:00 +21°C° 0 mm 2 mps 745 mmHg 51%
    22:00 +21°C° 0 mm 2 mps 745 mmHg 52%
    23:00 +21°C° 0 mm 2 mps 745 mmHg 54%

    Tomorrow, 22 September, Saturday

    Time Temperature Precipitation Wind Pressure Humidity
    00:00 +20°C° 0 mm 2 mps 745 mmHg 55%
    01:00 +20°C° 0 mm 2 mps 745 mmHg 56%
    02:00 +19°C° 0 mm 2 mps 745 mmHg 57%
    03:00 +19°C° 0 mm 2 mps 745 mmHg 56%
    04:00 +19°C° 0 mm 2 mps 745 mmHg 56%
    05:00 +19°C° 0 mm 2 mps 745 mmHg 56%
    06:00 +20°C° 0 mm 2 mps 745 mmHg 53%
    07:00 +21°C° 0 mm 2 mps 745 mmHg 50%
    08:00 +24°C° 0 mm 2 mps 745 mmHg 47%
    09:00 +25°C° 0 mm 3 mps 745 mmHg 43%
    10:00 +27°C° 0 mm 3 mps 745 mmHg 38%
    11:00 +29°C° 0 mm 4 mps 745 mmHg 33%
    12:00 +29°C° 0 mm 4 mps 744 mmHg 32%
    13:00 +30°C° 0 mm 4 mps 744 mmHg 30%
    14:00 +30°C° 0 mm 4 mps 744 mmHg 29%
    15:00 +29°C° 0 mm 4 mps 743 mmHg 31%
    16:00 +28°C° 0 mm 3 mps 743 mmHg 34%
    17:00 +27°C° 0 mm 3 mps 742 mmHg 36%
    18:00 +26°C° 0 mm 3 mps 742 mmHg 38%
    19:00 +24°C° 0 mm 3 mps 742 mmHg 40%
    20:00 +22°C° 0 mm 3 mps 742 mmHg 42%
    21:00 +21°C° 0 mm 3 mps 742 mmHg 46%
    22:00 +21°C° 0 mm 4 mps 742 mmHg 50%
    23:00 +20°C° 0 mm 4 mps 742 mmHg 53%

    Day after tomorrow, 23 September, Sunday

    Time Temperature Precipitation Wind Pressure Humidity
    00:00 +17°C° 0.1 mm 5 mps 743 mmHg 60%
    01:00 +15°C° 0.1 mm 6 mps 743 mmHg 67%
    02:00 +14°C° 0.1 mm 7 mps 743 mmHg 73%
    03:00 +12°C° 1 mm 7 mps 743 mmHg 77%
    04:00 +11°C° 1 mm 6 mps 744 mmHg 80%
    05:00 +10°C° 1 mm 6 mps 744 mmHg 84%
    06:00 +10°C° 0.2 mm 5 mps 744 mmHg 81%
    07:00 +10°C° 0.2 mm 5 mps 744 mmHg 78%
    08:00 +11°C° 0.2 mm 4 mps 745 mmHg 75%
    09:00 +12°C° 0 mm 4 mps 745 mmHg 68%
    10:00 +14°C° 0 mm 4 mps 745 mmHg 62%
    11:00 +15°C° 0 mm 4 mps 745 mmHg 55%
    12:00 +17°C° 0 mm 4 mps 745 mmHg 51%
    13:00 +18°C° 0 mm 4 mps 745 mmHg 47%
    14:00 +19°C° 0 mm 5 mps 745 mmHg 43%
    15:00 +19°C° 0 mm 4 mps 745 mmHg 44%
    16:00 +18°C° 0 mm 4 mps 745 mmHg 45%
    17:00 +18°C° 0 mm 3 mps 745 mmHg 46%
    18:00 +17°C° 0 mm 3 mps 745 mmHg 49%
    19:00 +16°C° 0 mm 2 mps 745 mmHg 52%
    20:00 +14°C° 0 mm 2 mps 745 mmHg 55%
    21:00 +14°C° 0 mm 2 mps 745 mmHg 56%
    22:00 +14°C° 0 mm 2 mps 745 mmHg 57%
    23:00 +13°C° 0 mm 2 mps 745 mmHg 58%

    24 September, Monday

    Time Temperature Precipitation Wind Pressure Humidity
    00:00 +13°C° 0 mm 2 mps 745 mmHg 58%
    01:00 +13°C° 0 mm 2 mps 744 mmHg 59%
    02:00 +12°C° 0 mm 3 mps 744 mmHg 59%
    03:00 +12°C° 0 mm 3 mps 743 mmHg 59%
    04:00 +12°C° 0 mm 4 mps 743 mmHg 58%
    05:00 +12°C° 0 mm 5 mps 742 mmHg 58%
    06:00 +13°C° 0 mm 6 mps 741 mmHg 55%
    07:00 +15°C° 0 mm 8 mps 741 mmHg 52%
    08:00 +16°C° 0 mm 10 mps 740 mmHg 48%
    09:00 +18°C° 0.1 mm 11 mps 739 mmHg 49%
    10:00 +19°C° 0.1 mm 12 mps 738 mmHg 50%
    11:00 +22°C° 0.1 mm 12 mps 738 mmHg 51%
    12:00 +21°C° 0.5 mm 12 mps 737 mmHg 57%
    13:00 +21°C° 0.5 mm 12 mps 737 mmHg 63%
    14:00 +19°C° 0.5 mm 11 mps 736 mmHg 68%
    15:00 +17°C° 0.9 mm 11 mps 736 mmHg 69%
    16:00 +14°C° 0.9 mm 10 mps 737 mmHg 69%
    17:00 +12°C° 0.9 mm 10 mps 737 mmHg 70%
    18:00 +11°C° 0 mm 9 mps 738 mmHg 69%
    19:00 +10°C° 0 mm 8 mps 739 mmHg 69%
    20:00 +10°C° 0 mm 7 mps 740 mmHg 69%
    21:00 +9°C° 0 mm 7 mps 740 mmHg 69%
    22:00 +9°C° 0 mm 7 mps 740 mmHg 69%
    23:00 +9°C° 0 mm 8 mps 741 mmHg 68%

    25 September, Tuesday

    Time Temperature Precipitation Wind Pressure Humidity
    00:00 +7°C° 0 mm 8 mps 741 mmHg 69%
    01:00 +8°C° 0 mm 7 mps 741 mmHg 69%
    02:00 +8°C° 0 mm 7 mps 741 mmHg 69%
    03:00 +6°C° 0 mm 7 mps 741 mmHg 69%
    04:00 +6°C° 0 mm 7 mps 741 mmHg 69%
    05:00 +6°C° 0 mm 7 mps 741 mmHg 69%
    06:00 +6°C° 0 mm 8 mps 742 mmHg 68%
    07:00 +7°C° 0 mm 9 mps 742 mmHg 66%
    08:00 +8°C° 0 mm 9 mps 743 mmHg 65%
    09:00 +8°C° 0 mm 9 mps 743 mmHg 63%
    10:00 +8°C° 0 mm 9 mps 744 mmHg 60%
    11:00 +8°C° 0 mm 9 mps 745 mmHg 58%
    12:00 +10°C° 0 mm 9 mps 745 mmHg 54%
    13:00 +11°C° 0 mm 9 mps 745 mmHg 50%
    14:00 +11°C° 0 mm 9 mps 746 mmHg 46%
    15:00 +11°C° 0 mm 8 mps 746 mmHg 47%
    16:00 +11°C° 0 mm 7 mps 746 mmHg 48%
    17:00 +10°C° 0 mm 6 mps 746 mmHg 48%
    18:00 +9°C° 0 mm 6 mps 747 mmHg 52%
    19:00 +8°C° 0 mm 5 mps 747 mmHg 56%
    20:00 +7°C° 0 mm 4 mps 748 mmHg 60%
    21:00 +7°C° 0 mm 4 mps 748 mmHg 62%
    22:00 +6°C° 0 mm 4 mps 748 mmHg 64%
    23:00 +6°C° 0 mm 4 mps 748 mmHg 66%

    26 September, Wednesday

    Time Temperature Precipitation Wind Pressure Humidity
    00:00 +5°C° 0 mm 4 mps 748 mmHg 68%
    01:00 +5°C° 0 mm 4 mps 748 mmHg 70%
    02:00 +4°C° 0 mm 3 mps 749 mmHg 72%
    03:00 +4°C° 0 mm 3 mps 749 mmHg 73%
    04:00 +4°C° 0 mm 3 mps 749 mmHg 75%
    05:00 +3°C° 0 mm 3 mps 749 mmHg 76%
    06:00 +5°C° 0 mm 3 mps 749 mmHg 70%
    07:00 +7°C° 0 mm 3 mps 749 mmHg 65%
    08:00 +7°C° 0 mm 4 mps 749 mmHg 59%
    09:00 +10°C° 0 mm 4 mps 749 mmHg 53%
    10:00 +10°C° 0 mm 5 mps 749 mmHg 46%
    11:00 +13°C° 0 mm 5 mps 749 mmHg 40%
    12:00 +13°C° 0 mm 5 mps 749 mmHg 40%
    13:00 +13°C° 0 mm 6 mps 749 mmHg 41%
    14:00 +13°C° 0 mm 6 mps 749 mmHg 41%
    15:00 +13°C° 0 mm 5 mps 749 mmHg 45%
    16:00 +12°C° 0 mm 4 mps 749 mmHg 48%
    17:00 +11°C° 0 mm 3 mps 749 mmHg 52%
    18:00 +10°C° 0 mm 3 mps 750 mmHg 56%
    19:00 +9°C° 0 mm 2 mps 750 mmHg 61%
    20:00 +8°C° 0 mm 2 mps 751 mmHg 66%
    21:00 +8°C° 0 mm 2 mps 751 mmHg 68%
    22:00 +8°C° 0 mm 2 mps 751 mmHg 69%
    23:00 +7°C° 0 mm 2 mps 751 mmHg 71%
    Show more